Bolton Field, OH

10:09 AM EDT on August 22, 2017 (GMT -0400)
Bolton

Weather History for KTZR - November, 2012

Change the Weather History Date:

Tuesday, November 13, 2012

  Actual Average Record
Temperature  
Mean Temperature 32 °F -  
Max Temperature 40 °F 50 °F 71 °F (2010)
Min Temperature 25 °F 34 °F 19 °F (2013)
Degree Days  
Heating Degree Days 33    
Moisture  
Dew Point 24 °F    
Average Humidity 78    
Maximum Humidity 90    
Minimum Humidity 56    
Precipitation  
Precipitation 0.00 in - - ()
Sea Level Pressure  
Sea Level Pressure 30.45 in    
Wind  
Wind Speed 5 mph (WSW)    
Max Wind Speed 7 mph    
Max Gust Speed -    
Visibility 10 miles    
Events      
Averages and records for this station are not official NWS values.
T = Trace of Precipitation, MM = Missing Value Source: NWS Daily Summary

Daily Weather History Graph

Daily Weather History Graph

Search for Another Location

Airport or City:

Trip Planner

Search our weather history database for the weather conditions in past years. The results will help you decide how hot, cold, wet, or windy it might be!

Date:

Astronomy

Nov. 13, 2012 Rise Set
Actual Time 7:15 AM EST 5:17 PM EST
Civil Twilight 6:46 AM EST 5:46 PM EST
Nautical Twilight 6:14 AM EST 6:19 PM EST
Astronomical Twilight 5:42 AM EST 6:51 PM EST
Moon 6:52 AM EST (11/13) 5:09 PM EST (11/13)
Length of Visible Light 10h 59m
Length of Day
10h 01m
Waning Crescent, 0% of the Moon is Illuminated
Nov 13
Waning Crescent
Nov 13
New
Nov 20
First Quarter
Nov 28
Full
Dec 6
Last Quarter

Hourly Weather History & Observations

Time (EST) Temp. Windchill Dew Point Humidity Pressure Visibility Wind Dir Wind Speed Gust Speed Precip Events Conditions
12:15 AM 28.4 °F 21.2 °F 25.3 °F 88% 30.39 in 10.0 mi SSW 6.9 mph - N/A   Clear
12:35 AM 29.3 °F 22.3 °F 25.7 °F 86% 30.39 in 10.0 mi SSW 6.9 mph - N/A   Clear
12:55 AM 28.8 °F 21.7 °F 25.5 °F 88% 30.39 in 10.0 mi SSW 6.9 mph - N/A   Clear
1:15 AM 29.1 °F 23.0 °F 25.5 °F 86% 30.39 in 10.0 mi SSW 5.8 mph - N/A   Clear
1:35 AM 29.1 °F 23.0 °F 25.3 °F 86% 30.39 in 10.0 mi SSW 5.8 mph - N/A   Clear
1:55 AM 28.2 °F 22.0 °F 24.8 °F 87% 30.39 in 10.0 mi SSW 5.8 mph - N/A   Scattered Clouds
2:15 AM 27.5 °F 20.2 °F 24.6 °F 89% 30.39 in 10.0 mi SSW 6.9 mph - N/A   Scattered Clouds
2:35 AM 27.5 °F 21.1 °F 24.4 °F 88% 30.39 in 10.0 mi SSW 5.8 mph - N/A   Clear
2:55 AM 27.3 °F 20.9 °F 24.4 °F 89% 30.39 in 10.0 mi SSW 5.8 mph - N/A   Clear
3:15 AM 26.4 °F 18.9 °F 23.4 °F 88% 30.40 in 10.0 mi SSW 6.9 mph - N/A   Clear
3:35 AM 27.1 °F 19.7 °F 23.9 °F 88% 30.40 in 10.0 mi SW 6.9 mph - N/A   Scattered Clouds
3:55 AM 27.3 °F 20.9 °F 24.3 °F 88% 30.40 in 10.0 mi SW 5.8 mph - N/A   Scattered Clouds
4:15 AM 27.1 °F 20.7 °F 23.9 °F 88% 30.39 in 10.0 mi SW 5.8 mph - N/A   Scattered Clouds
4:35 AM 27.1 °F 20.7 °F 23.9 °F 88% 30.39 in 10.0 mi SW 5.8 mph - N/A   Clear
4:55 AM 26.2 °F 19.6 °F 23.4 °F 89% 30.40 in 10.0 mi SSW 5.8 mph - N/A   Clear
5:15 AM 25.5 °F 18.7 °F 23.0 °F 90% 30.40 in 10.0 mi SSW 5.8 mph - N/A   Clear
5:35 AM 25.3 °F 18.5 °F 22.8 °F 90% 30.41 in 10.0 mi SSW 5.8 mph - N/A   Clear
5:55 AM 25.5 °F 19.9 °F 23.0 °F 90% 30.41 in 10.0 mi SW 4.6 mph - N/A   Clear
6:15 AM 25.7 °F 19.0 °F 22.8 °F 89% 30.41 in 10.0 mi SW 5.8 mph - N/A   Clear
6:55 AM 27.0 °F 21.6 °F 23.5 °F 87% 30.43 in 10.0 mi WSW 4.6 mph - N/A   Clear
7:20 AM 26.6 °F 21.2 °F 23.0 °F 86% 30.44 in 10.0 mi WSW 4.6 mph - N/A   Clear
7:47 AM 26.6 °F 22.6 °F 23.0 °F 86% 30.45 in 10.0 mi WSW 3.5 mph - N/A   Clear
8:47 AM 32.0 °F 26.4 °F 26.6 °F 80% 30.46 in 10.0 mi WSW 5.8 mph - N/A   Clear
9:47 AM 35.6 °F 30.7 °F 26.6 °F 70% 30.47 in 10.0 mi WSW 5.8 mph - N/A   Clear
10:47 AM 37.4 °F 33.8 °F 26.6 °F 65% 30.48 in 10.0 mi West 4.6 mph - N/A   Clear
11:50 AM 39.2 °F 34.2 °F 24.8 °F 56% 30.47 in 10.0 mi WSW 6.9 mph - N/A   Mostly Cloudy
12:50 PM 39.2 °F 37.0 °F 24.8 °F 56% 30.45 in 10.0 mi WSW 3.5 mph - N/A   Mostly Cloudy
1:50 PM 39.2 °F 34.2 °F 24.8 °F 56% 30.44 in 10.0 mi WNW 6.9 mph - N/A   Mostly Cloudy
2:50 PM 39.2 °F - 24.8 °F 56% 30.45 in 10.0 mi Calm Calm - N/A   Mostly Cloudy
3:58 PM 37.4 °F - 24.8 °F 60% 30.46 in 10.0 mi Calm Calm - N/A   Overcast
4:50 PM 37.4 °F - 23.0 °F 56% 30.46 in 10.0 mi Calm Calm - N/A   Overcast
5:50 PM 35.6 °F - 24.8 °F 65% 30.46 in 10.0 mi Calm Calm - N/A   Overcast
6:50 PM 35.6 °F 30.7 °F 24.8 °F 65% 30.47 in 10.0 mi NNW 5.8 mph - N/A   Overcast
8:15 PM 33.3 °F 30.2 °F 23.4 °F 67% 30.50 in 10.0 mi NNW 3.5 mph - N/A   Clear
8:35 PM 30.9 °F - 23.4 °F 74% 30.50 in 10.0 mi Calm Calm - N/A   Clear
8:55 PM 32.0 °F 27.5 °F 23.0 °F 69% 30.51 in 10.0 mi North 4.6 mph - N/A   Clear
9:15 PM 30.4 °F 25.6 °F 23.0 °F 74% 30.51 in 10.0 mi North 4.6 mph - N/A   Clear
9:35 PM 29.5 °F 24.5 °F 22.8 °F 76% 30.51 in 10.0 mi North 4.6 mph - N/A   Clear
9:55 PM 31.3 °F 26.6 °F 23.4 °F 72% 30.52 in 10.0 mi North 4.6 mph - N/A   Clear
10:15 PM 29.8 °F 24.9 °F 23.0 °F 76% 30.51 in 10.0 mi North 4.6 mph - N/A   Clear
10:35 PM 30.9 °F 27.5 °F 23.9 °F 75% 30.52 in 10.0 mi North 3.5 mph - N/A   Clear
10:55 PM 28.9 °F 25.2 °F 23.2 °F 79% 30.52 in 10.0 mi North 3.5 mph - N/A   Clear
11:15 PM 29.5 °F 25.9 °F 23.0 °F 77% 30.52 in 10.0 mi North 3.5 mph - N/A   Clear
11:35 PM 28.2 °F 24.4 °F 22.6 °F 80% 30.51 in 10.0 mi North 3.5 mph - N/A   Clear
11:55 PM 29.8 °F - 23.7 °F 78% 30.51 in 10.0 mi Calm Calm - N/A   Clear